Temperature
29 30 31 31 31 31 31 30 29 29 28 28 28 27 27 26 26 26 25 24 23 22 21 21 20 20 19 19 18 18 18 17 17 17 17 17 17 16 16 16 16 16 16 16
29 30 30 30 31 31 31 30 30 29 27 28 27 26 26 26 25 25 25 24 23 22 21 20 20 19 19 18 18 18 17 17 17 17 17 16 16 16 16 16 16 16 16 16
27 29 29 28 30 31 31 31 30 28 27 27 26 26 26 25 25 25 24 23 22 21 21 20 19 19 18 18 18 17 17 17 17 16 16 16 16 16 16 15 15 15 15 15
27 27 26 29 31 31 31 30 30 29 28 27 26 25 25 24 24 23 22 22 21 21 20 19 19 18 18 18 17 17 17 16 16 16 16 15 15 15 15 15 15 15 15 14
26 26 27 29 30 30 29 29 29 29 28 27 25 25 24 23 23 22 21 21 20 20 20 19 18 18 18 18 17 17 16 16 16 16 15 15 15 15 15 14 14 14 14 14
26 25 25 26 28 29 29 27 28 28 27 26 26 25 23 22 22 21 20 20 19 19 19 18 18 18 17 17 16 16 16 16 15 15 15 15 15 14 14 14 14 13 13 13
25 25 26 26 27 27 26 25 26 26 25 25 24 24 21 21 20 20 19 19 19 18 18 18 17 17 17 16 16 16 15 15 15 15 15 14 14 14 14 13 13 13 12 12
25 25 24 26 26 24 23 24 25 24 23 22 21 21 20 19 19 19 18 18 18 18 17 17 17 17 16 16 15 15 15 15 14 14 14 14 14 13 13 13 12 12 12 11
24 24 23 24 23 23 23 23 23 22 22 21 20 19 19 18 18 18 17 17 17 17 16 16 16 16 16 15 15 15 14 14 14 13 13 13 13 12 12 12 11 11 11 10
23 23 23 22 22 22 22 22 21 21 20 20 19 19 18 17 17 17 17 17 16 16 16 15 15 15 15 15 14 14 14 13 13 13 12 12 12 11 11 11 11 10 10 9
21 21 22 21 20 20 20 21 20 20 20 19 18 18 17 17 16 16 16 16 15 15 15 14 14 14 14 14 14 13 13 12 12 12 12 11 11 11 11 11 10 10 10 9
20 20 20 20 19 19 19 19 19 19 18 18 17 17 16 16 15 15 15 15 14 14 14 13 13 13 13 13 13 13 12 12 11 11 11 10 10 10 9 9 9 9 9 9
19 19 19 18 18 18 18 18 18 17 17 16 16 16 15 15 14 14 14 14 13 13 13 13 12 12 12 12 12 12 12 11 11 10 10 10 9 9 9 8 8 8 8 8
18 18 18 17 17 17 17 17 16 16 16 15 15 15 14 13 13 13 13 13 13 12 12 12 12 11 11 11 11 11 11 10 10 10 9 9 9 8 8 8 8 7 7 7
18 17 17 17 16 16 16 16 15 15 14 14 14 13 13 13 12 12 12 12 12 12 11 11 11 11 10 10 10 10 10 10 9 9 9 9 8 8 7 7 7 7 7 6
17 17 17 16 16 15 15 15 14 14 13 13 13 12 12 12 12 11 11 11 11 11 10 10 10 10 10 10 10 9 9 9 9 9 9 8 8 8 7 7 7 7 6 6
16 16 16 16 15 15 14 14 13 13 12 12 12 11 11 11 11 10 10 10 10 10 10 9 9 9 9 9 9 9 9 9 9 9 9 9 8 8 7 7 7 7 6 6
16 16 15 15 14 14 13 13 12 12 12 11 11 11 10 10 10 10 9 9 9 9 9 9 9 9 9 9 9 9 9 9 9 9 9 9 8 8 8 7 7 7 7 7
15 15 14 14 13 13 12 12 11 11 11 10 10 10 10 9 9 9 9 9 9 9 9 9 9 9 9 9 9 9 9 9 9 9 9 8 8 8 8 8 7 7 7 7
14 13 13 13 12 12 11 11 11 10 10 10 10 9 9 9 9 9 9 9 9 9 9 9 9 9 9 9 9 9 9 9 9 9 8 8 8 8 8 8 8 7 7 7
12 12 12 11 11 11 11 10 10 10 10 9 9 9 9 9 9 9 9 8 8 9 9 9 9 9 9 9 9 10 9 9 9 9 9 9 9 8 8 8 8 8 7 7
11 11 11 11 11 10 10 10 10 10 9 9 9 9 9 9 9 9 9 9 8 9 9 9 9 9 9 9 9 10 9 9 9 9 9 9 9 8 8 8 8 8 7 7
11 11 10 10 10 10 10 9 9 9 9 9 9 9 9 9 9 9 8 8 9 9 9 9 9 9 9 9 9 10 9 9 9 9 9 9 9 9 8 8 8 8 7 7
10 10 10 10 10 10 9 9 9 9 9 9 9 9 9 9 9 9 9 9 9 9 9 9 9 9 9 9 9 9 9 9 9 9 9 9 9 9 8 8 8 8 7 7
10 10 10 10 9 9 9 9 9 9 9 9 9 9 9 9 9 9 9 9 9 9 9 9 9 9 9 9 9 9 9 9 9 9 9 9 9 8 8 8 8 8 7 7
9 9 9 9 9 9 9 10 10 10 10 10 10 10 10 9 9 9 9 8 8 9 9 9 9 9 9 9 9 9 9 9 9 9 9 9 9 8 8 8 8 8 7 7
9 9 10 10 10 10 10 10 10 10 10 10 10 10 10 10 9 9 9 9 9 9 9 9 9 9 9 9 9 9 9 9 9 9 9 9 8 8 8 8 8 7 7 7
Wind_Speed
17 15 12 14 16 18 17 15 11 6 6 7 7 9 8 8 10 11 11 10 10 10 9 8 8 7 7 7 6 6 6 6 5 5 5 4 4 4 4 4 4 4 4 4
17 17 14 13 15 15 16 14 12 7 3 2 6 8 10 10 8 8 9 10 10 10 9 8 8 7 7 6 6 6 6 5 6 6 5 4 4 5 5 5 5 5 5 5
14 14 14 15 14 14 12 12 11 7 7 7 8 7 8 10 9 8 8 8 9 9 8 8 7 6 7 7 6 6 6 6 7 7 6 5 6 6 6 6 7 7 7 8
13 13 16 12 11 10 9 9 6 7 9 10 9 7 7 7 9 8 7 8 7 8 8 8 7 8 8 8 7 7 7 6 7 7 7 7 6 7 7 7 7 7 7 7
12 14 14 11 8 8 7 6 5 9 11 11 12 10 8 8 10 9 8 7 6 6 8 7 7 7 8 8 7 7 7 7 7 8 8 8 8 8 7 8 8 8 8 8
12 12 13 8 6 5 5 6 4 9 10 10 9 6 6 8 10 10 9 7 6 6 8 8 7 7 7 7 7 7 7 7 7 8 8 9 9 8 8 8 9 8 9 8
16 14 9 4 3 4 6 3 5 7 8 8 5 6 9 10 10 10 9 8 7 6 7 7 7 8 8 8 8 8 8 9 9 8 9 9 9 8 9 9 10 9 10 9
15 16 8 1 3 2 3 5 7 8 9 11 12 12 11 9 9 8 8 8 8 7 8 7 7 8 9 8 8 9 10 10 9 9 9 9 10 9 9 10 10 9 9 9
6 4 5 7 8 8 6 6 7 8 8 11 11 9 8 8 7 7 7 7 7 8 9 8 7 8 10 9 9 11 11 11 10 10 9 9 9 9 8 7 8 8 8 8
3 6 7 8 8 8 6 5 6 7 7 8 9 8 7 7 6 6 7 7 7 8 9 8 8 9 10 10 11 12 12 11 10 10 10 10 8 7 6 6 7 7 8 8
4 7 7 7 7 6 5 6 7 7 7 7 8 8 8 6 6 6 6 6 7 8 9 10 9 9 9 10 11 12 12 11 11 11 11 11 11 10 9 8 6 7 7 7
2 3 3 6 7 5 5 6 7 7 8 7 7 7 7 6 6 6 6 7 8 9 10 10 10 10 9 9 11 12 12 11 10 10 10 11 12 13 19 16 19 18 13 11
4 4 5 7 7 6 6 7 7 7 8 7 7 7 7 7 6 6 7 9 9 9 10 11 11 10 9 9 10 11 11 11 10 10 10 10 10 11 11 13 18 18 15 14
4 5 5 6 6 6 6 7 7 6 7 7 7 7 8 8 8 8 8 10 10 11 11 11 11 10 9 10 11 11 11 11 11 9 9 9 10 10 9 10 10 9 10 11
2 4 5 7 7 5 5 6 7 6 7 7 7 8 9 10 10 9 9 10 11 12 11 11 12 11 10 11 11 11 10 9 9 9 9 9 10 9 9 10 10 9 7 5
3 5 7 7 7 6 6 7 7 7 7 8 9 9 10 11 11 10 10 10 11 12 11 11 11 11 9 10 10 9 9 12 10 9 9 9 9 9 9 9 9 8 7 6
4 6 6 6 6 6 6 7 7 7 7 9 10 11 11 12 12 11 10 10 11 11 11 10 10 10 10 10 10 9 9 9 10 9 8 8 8 9 8 8 8 8 7 6
4 6 6 6 7 7 7 8 8 8 9 10 11 11 11 12 12 12 12 12 12 11 10 10 10 10 9 9 8 8 8 8 7 7 7 7 8 7 7 8 9 9 8 6
7 7 7 8 8 8 8 8 9 10 11 11 12 11 11 11 11 11 11 12 12 11 9 10 11 10 9 8 8 7 8 8 8 7 7 8 7 7 7 8 8 8 7 6
8 8 9 9 9 9 9 10 11 12 12 12 12 12 12 11 11 11 11 10 8 8 9 9 8 8 8 7 6 6 7 8 9 8 7 6 6 6 7 7 7 7 6 5
9 10 11 10 9 10 11 12 12 12 12 12 12 12 12 11 11 10 11 10 9 9 9 9 6 6 6 5 3 5 7 7 8 7 6 6 6 5 5 6 6 6 6 5
9 10 11 11 12 12 12 12 12 13 12 12 12 12 12 12 11 10 10 8 8 8 7 7 6 6 5 4 4 5 7 7 7 6 5 5 5 5 5 6 5 5 5 5
9 10 11 12 13 13 13 12 12 12 12 12 12 12 11 9 9 9 9 7 7 6 4 5 7 8 4 2 3 5 6 6 5 5 5 5 5 5 5 6 5 5 5 4
11 12 12 13 14 14 13 12 11 10 11 10 10 10 10 9 8 8 8 9 8 8 6 7 9 6 3 2 3 4 5 4 4 4 4 4 4 5 5 5 5 5 4 4
12 13 13 13 12 11 11 11 11 11 11 9 10 9 8 7 8 8 8 9 10 9 7 6 5 3 2 3 3 4 4 3 3 3 3 4 4 4 4 3 3 3 4 4
11 10 9 9 9 8 9 9 9 8 8 8 8 7 8 8 9 9 8 10 10 8 7 6 5 4 3 3 4 3 4 5 4 3 3 3 3 3 3 2 3 3 3 3
11 9 8 9 8 8 8 8 8 8 8 8 8 8 8 8 8 8 9 8 8 7 6 6 6 4 4 3 4 3 3 4 4 3 3 3 3 2 3 3 2 2 2 3
Wind_Direction
257 259 247 228 224 223 225 236 245 243 214 192 159 148 145 141 139 141 142 142 139 138 135 137 141 148 152 150 147 147 149 149 143 140 131 135 134 131 122 124 136 120 114 108
247 254 254 250 232 229 222 223 232 225 205 180 147 141 145 145 145 147 145 147 143 142 143 147 147 150 144 138 136 137 140 138 131 128 126 125 126 120 111 106 102 101 97 94
250 245 248 248 241 236 226 221 227 216 173 166 144 144 147 148 152 151 140 136 141 143 140 140 146 149 145 137 135 135 133 127 125 126 122 116 119 111 106 102 95 90 88 89
248 247 244 244 238 242 236 223 200 153 153 155 142 133 126 134 130 121 124 125 127 138 139 143 145 141 135 136 135 135 131 126 124 124 120 117 111 106 102 100 99 96 94 94
243 243 244 246 242 242 233 223 168 144 137 133 128 122 106 108 112 113 115 113 114 125 132 131 132 132 138 138 136 135 131 126 124 126 125 121 115 108 106 102 96 93 90 89
241 243 240 246 269 279 220 205 121 125 128 134 148 148 122 107 110 107 104 103 104 112 115 118 117 122 126 126 121 119 119 117 116 119 121 117 114 111 106 101 96 91 86 83
239 246 240 257 266 277 238 181 98 102 114 122 117 95 114 106 98 99 101 102 99 97 105 111 117 119 116 112 111 110 106 103 103 106 109 109 107 105 106 104 100 94 90 82
232 242 238 68 170 169 77 72 86 88 93 92 93 97 105 106 104 103 104 104 104 98 96 98 108 115 115 112 111 110 108 106 104 102 104 106 105 103 106 110 108 105 99 88
218 211 91 76 87 88 84 83 87 83 88 102 103 105 106 107 109 107 109 105 105 106 100 93 96 106 113 111 111 108 105 103 101 98 95 101 107 112 114 113 113 113 109 103
129 130 109 94 90 89 86 81 90 97 103 111 116 120 117 115 112 107 102 103 108 113 109 100 96 98 106 110 112 113 110 105 102 98 91 82 78 80 89 99 110 113 111 110
150 129 114 90 78 70 74 84 85 92 97 107 115 120 120 116 114 110 107 103 103 107 109 105 102 101 106 113 116 113 109 105 100 95 94 83 74 64 71 61 81 103 108 110
132 103 106 104 86 67 78 79 85 92 102 107 114 120 117 109 104 106 105 105 106 108 110 108 105 102 103 110 116 117 114 110 106 105 103 101 95 80 61 67 67 69 78 93
84 78 98 98 82 65 75 81 84 90 95 101 106 113 111 106 99 98 103 106 107 107 108 107 103 99 101 105 108 111 114 114 113 112 112 111 109 107 98 75 66 64 70 82
75 100 106 95 84 69 76 83 79 82 86 93 100 105 107 106 104 102 103 107 106 106 105 105 104 100 100 104 105 106 110 113 116 117 118 117 115 114 112 110 100 84 69 75
143 129 125 118 113 114 107 104 99 89 86 88 94 101 107 110 107 106 107 111 111 108 107 106 105 105 108 112 113 114 114 117 116 118 119 120 121 120 116 112 111 111 111 96
141 125 129 127 122 121 119 113 109 105 103 102 102 100 103 106 107 108 109 113 115 113 113 112 113 117 118 116 114 111 108 114 121 124 125 127 127 126 123 123 124 126 129 132
172 158 146 139 128 118 109 106 110 110 113 113 112 111 109 110 110 110 109 108 108 112 116 119 120 122 124 123 119 117 118 122 125 127 129 130 130 130 131 131 130 131 132 136
150 136 129 122 118 115 109 108 111 114 113 115 115 114 115 116 115 116 117 117 114 112 113 117 120 122 121 120 120 124 128 133 136 131 132 133 135 138 138 136 135 131 134 147
127 123 117 112 113 112 108 107 111 111 112 113 113 112 112 113 115 116 116 115 116 115 115 117 122 124 125 128 130 133 141 142 134 130 126 129 135 134 134 136 139 142 145 149
111 116 117 112 111 114 115 115 114 112 113 114 114 112 110 110 114 117 114 107 106 114 120 121 124 124 132 140 145 146 142 135 131 130 132 142 140 139 144 147 146 143 142 141
114 114 115 117 114 113 113 114 114 115 117 117 117 116 115 114 115 116 116 111 109 116 121 123 128 134 141 144 160 139 132 127 127 131 141 146 142 145 143 140 141 142 143 143
118 117 117 118 116 114 113 113 114 115 116 118 119 119 119 120 118 111 103 110 124 132 138 139 138 129 125 140 150 137 133 133 135 139 144 145 144 145 141 141 146 148 147 149
116 116 117 118 117 115 114 115 116 117 118 119 121 122 120 116 118 116 114 119 131 141 136 125 117 110 103 153 141 128 127 132 137 142 145 149 151 150 151 156 158 155 150 156
114 115 114 114 113 114 115 118 119 119 119 118 120 122 123 122 119 115 115 118 116 124 115 112 118 114 115 138 122 119 125 135 141 146 151 152 152 155 161 168 168 163 162 173
112 115 115 117 116 116 117 119 121 124 121 120 123 126 124 121 122 121 122 123 126 125 123 125 127 132 163 157 141 133 135 132 136 146 154 158 166 167 165 166 166 173 177 182
111 113 113 114 116 121 125 126 125 126 126 129 131 127 121 119 120 125 132 137 138 138 140 148 162 185 184 163 146 152 150 146 156 170 176 168 167 166 163 176 194 198 191 191
113 114 116 117 121 122 123 123 123 122 121 123 122 120 123 126 130 133 134 139 148 154 155 163 170 179 183 171 166 173 169 168 176 179 174 166 170 181 185 194 215 220 213 205
Height
1432 1428 1427 1429 1431 1431 1436 1439 1448 1449 1451 1448 1449 1452 1457 1460 1463 1467 1472 1476 1479 1483 1486 1489 1492 1495 1497 1499 1501 1503 1505 1506 1508 1509 1511 1513 1515 1516 1518 1520 1522 1523 1525 1526
1436 1428 1426 1429 1427 1428 1430 1433 1439 1443 1450 1446 1450 1453 1457 1460 1464 1468 1472 1475 1479 1483 1486 1489 1492 1494 1496 1498 1500 1502 1503 1505 1507 1509 1510 1512 1514 1516 1517 1519 1521 1522 1524 1525
1442 1432 1432 1439 1427 1426 1426 1427 1433 1443 1447 1447 1451 1454 1457 1460 1465 1468 1472 1475 1479 1482 1485 1489 1491 1494 1496 1498 1500 1501 1503 1505 1506 1508 1510 1511 1513 1515 1516 1518 1520 1521 1522 1524
1442 1442 1455 1434 1418 1420 1423 1427 1427 1435 1440 1446 1451 1455 1459 1462 1465 1469 1473 1476 1479 1482 1485 1488 1491 1493 1495 1497 1499 1501 1502 1504 1506 1507 1509 1511 1512 1514 1516 1517 1519 1520 1522 1523
1442 1447 1443 1429 1421 1422 1427 1431 1429 1433 1439 1446 1452 1456 1461 1464 1466 1470 1473 1475 1479 1483 1485 1487 1490 1492 1494 1497 1498 1500 1502 1504 1505 1507 1508 1510 1512 1513 1515 1517 1518 1519 1521 1523
1442 1450 1453 1437 1425 1424 1428 1438 1434 1435 1440 1446 1450 1456 1464 1465 1467 1470 1473 1476 1479 1482 1485 1487 1489 1491 1494 1496 1498 1500 1501 1503 1505 1507 1508 1510 1511 1513 1515 1516 1518 1520 1521 1523
1442 1444 1439 1431 1427 1429 1444 1445 1439 1440 1443 1447 1452 1456 1463 1465 1467 1471 1474 1476 1479 1482 1484 1486 1488 1490 1493 1495 1497 1499 1501 1503 1504 1506 1508 1510 1511 1513 1515 1516 1518 1520 1522 1524
1438 1444 1445 1432 1432 1438 1444 1441 1441 1445 1448 1451 1455 1459 1463 1466 1469 1472 1475 1477 1479 1482 1483 1485 1487 1490 1492 1494 1497 1499 1500 1502 1504 1506 1508 1510 1511 1513 1515 1517 1518 1520 1522 1524
1433 1440 1438 1436 1439 1442 1443 1445 1447 1449 1452 1455 1458 1462 1466 1469 1471 1473 1476 1478 1480 1482 1484 1486 1487 1490 1491 1494 1496 1498 1500 1502 1503 1505 1508 1510 1512 1514 1516 1518 1520 1521 1523 1525
1433 1436 1438 1440 1442 1445 1447 1449 1451 1452 1456 1457 1460 1464 1468 1471 1473 1474 1476 1478 1480 1482 1484 1486 1488 1490 1491 1493 1495 1497 1499 1501 1504 1506 1508 1510 1513 1515 1517 1519 1521 1523 1525 1527
1436 1439 1441 1443 1445 1448 1450 1451 1452 1454 1457 1461 1463 1466 1468 1471 1473 1475 1477 1478 1480 1482 1484 1486 1488 1490 1491 1493 1495 1497 1499 1501 1504 1506 1508 1511 1513 1516 1518 1520 1522 1524 1526 1528
1440 1441 1442 1446 1447 1451 1452 1453 1455 1456 1459 1462 1465 1467 1469 1471 1473 1475 1477 1479 1481 1482 1484 1486 1488 1490 1492 1494 1496 1498 1500 1502 1505 1507 1510 1512 1514 1517 1520 1523 1524 1526 1528 1530
1441 1443 1446 1448 1450 1452 1453 1456 1458 1459 1460 1463 1465 1467 1469 1471 1473 1475 1477 1479 1481 1483 1485 1487 1488 1490 1493 1495 1497 1499 1501 1503 1506 1509 1512 1514 1517 1519 1521 1525 1527 1529 1531 1533
1444 1445 1448 1449 1451 1454 1456 1458 1460 1461 1462 1464 1466 1468 1469 1471 1474 1476 1478 1479 1482 1484 1486 1488 1490 1492 1494 1496 1498 1501 1503 1506 1509 1511 1514 1517 1519 1522 1524 1526 1528 1531 1535 1537
1447 1448 1450 1451 1454 1457 1459 1460 1462 1462 1464 1466 1467 1468 1470 1472 1474 1476 1478 1481 1483 1485 1487 1489 1491 1494 1496 1499 1501 1503 1506 1509 1512 1515 1517 1520 1523 1525 1528 1530 1532 1535 1537 1540
1448 1449 1452 1454 1456 1458 1459 1461 1462 1464 1466 1467 1469 1470 1471 1473 1475 1477 1480 1482 1484 1486 1489 1491 1493 1496 1499 1502 1504 1506 1509 1512 1515 1518 1521 1524 1527 1529 1532 1534 1536 1538 1541 1543
1449 1450 1452 1455 1456 1458 1460 1462 1463 1465 1467 1468 1470 1471 1472 1474 1477 1479 1482 1484 1487 1489 1491 1494 1496 1499 1503 1505 1507 1510 1513 1516 1519 1522 1525 1528 1530 1533 1535 1537 1539 1541 1543 1545
1449 1451 1453 1455 1457 1460 1462 1463 1465 1467 1468 1469 1471 1473 1475 1477 1479 1481 1484 1487 1489 1492 1495 1498 1501 1503 1506 1509 1512 1515 1517 1520 1523 1525 1528 1531 1534 1536 1538 1540 1542 1544 1546 1547
1449 1452 1454 1457 1459 1461 1463 1465 1467 1468 1469 1471 1473 1475 1478 1480 1482 1485 1488 1490 1493 1496 1499 1502 1505 1508 1510 1513 1516 1518 1521 1523 1526 1529 1531 1534 1536 1539 1541 1542 1544 1546 1547 1549
1451 1453 1456 1458 1461 1463 1465 1467 1468 1470 1472 1474 1476 1479 1481 1484 1486 1488 1491 1494 1497 1500 1503 1506 1509 1512 1514 1517 1519 1521 1524 1526 1529 1531 1534 1536 1538 1540 1542 1544 1545 1547 1549 1550
1453 1455 1457 1460 1463 1465 1467 1469 1471 1473 1476 1478 1481 1483 1485 1488 1490 1492 1495 1498 1502 1504 1507 1510 1512 1515 1518 1520 1522 1524 1526 1529 1531 1533 1536 1538 1540 1542 1543 1545 1546 1548 1549 1550
1456 1458 1460 1463 1465 1468 1470 1472 1475 1477 1480 1483 1485 1487 1489 1492 1494 1497 1500 1502 1505 1508 1511 1514 1516 1518 1520 1522 1524 1527 1529 1531 1533 1535 1537 1539 1541 1542 1544 1545 1547 1548 1549 1550
1458 1461 1464 1466 1468 1471 1474 1477 1479 1482 1484 1486 1488 1491 1493 1496 1499 1501 1504 1507 1509 1512 1514 1516 1518 1520 1523 1525 1527 1529 1531 1533 1535 1536 1538 1540 1541 1543 1544 1546 1547 1548 1549 1550
1462 1464 1467 1470 1472 1475 1478 1481 1484 1486 1488 1491 1493 1496 1498 1500 1503 1506 1508 1510 1512 1514 1517 1519 1521 1523 1525 1527 1529 1530 1532 1534 1536 1537 1539 1540 1542 1543 1544 1546 1547 1548 1548 1549
1465 1468 1471 1474 1477 1480 1483 1485 1488 1490 1493 1495 1498 1500 1503 1505 1507 1509 1511 1513 1515 1517 1519 1521 1523 1525 1527 1529 1530 1532 1533 1535 1536 1538 1539 1540 1541 1542 1544 1545 1546 1547 1547 1548
1470 1473 1476 1478 1481 1484 1487 1489 1492 1494 1497 1499 1502 1504 1506 1508 1510 1512 1514 1516 1518 1520 1522 1524 1525 1527 1529 1531 1532 1533 1534 1535 1536 1537 1538 1539 1541 1542 1543 1544 1544 1545 1546 1546
1475 1478 1480 1483 1486 1489 1491 1494 1496 1498 1501 1503 1505 1508 1510 1512 1513 1515 1517 1519 1521 1523 1524 1526 1527 1529 1530 1531 1532 1533 1534 1535 1536 1537 1538 1539 1539 1540 1541 1542 1543 1543 1544 1545